Location: Los Ranchitos
(37.9930°N, 122.5425°W)
Time: 03:21:45
(UTC+00:00)

Cosmos 1025 Rocket - Pass Details

Date: 21 September 2020
Orbit: 595 x 617 km, 82.5° (Epoch: 27 October)

Event Time Altitude Azimuth Distance (km) Brightness Sun altitude
Rises 03:19:00 0° 358° (N) 2,887 6.7 -14.5°
Reaches altitude 10° 03:21:17 10° 3° (N) 1,980 5.8 -14.9°
Maximum altitude 03:25:34 52° 80° (E) 769 3.2 -15.7°
Enters shadow 03:28:45 17° 153° (SSE) 1,557 4.7 -16.3°
